Regional Weather Roundup
Issued by NWS

Home | Current Version | Previous Version | Graphics & Text | Print | Product List | Glossary On
Versions: 1 2 3 4 5 6 7 8 9 10 11 12 13 14 15 16 17 18 19 20 21 22 23 24 25 26 27 28 29 30 31 32 33 34 35 36 37 38 39 40 41 42 43 44 45 46 47 48 49 50
000
ASUS43 KBIS 190510
RWRND

NORTH DAKOTA REGIONAL WEATHER ROUNDUP
NATIONAL WEATHER SERVICE BISMARCK ND
1100 PM CST SAT NOV 18 2017

NOTE: "FAIR" INDICATES FEW OR NO CLOUDS BELOW 12,000 FEET WITH NO
SIGNIFICANT WEATHER AND/OR OBSTRUCTIONS TO VISIBILITY.


NDZ001>003-009>011-017-190600-
NORTHWEST NORTH DAKOTA

CITY           SKY/WX    TMP DP  RH WIND       PRES   REMARKS
WILLISTON      CLOUDY    26  19  74 W9        30.00S WCI  17
MINOT          CLOUDY    24  17  74 SW8       29.98S WCI  15
MINOT AFB      CLOUDY    17  13  83 W9        29.97S WCI   6
$$

NDZ018>021-031>035-040>046-190600-
SOUTHWEST NORTH DAKOTA

CITY           SKY/WX    TMP DP  RH WIND       PRES   REMARKS
BISMARCK       CLEAR     23  17  78 W3        30.06S
DICKINSON      CLOUDY    24  19  81 W10       30.01R WCI  14
GARRISON         N/A     26  19  74 W9        30.00S WCI  17
HETTINGER ARPT PTCLDY    21  17  84 NW6       30.08S WCI  13
$$

NDZ004>008-012>016-024-026-027-054-190600-
NORTHEAST NORTH DAKOTA

CITY           SKY/WX    TMP DP  RH WIND       PRES   REMARKS
GRAND FORKS    CLEAR     13   7  77 W7        30.04S WCI   3
GRND FRKS AFB  CLEAR     14   6  71 NW6       30.04S WCI   5
DEVILS LAKE    CLOUDY    11   7  84 W6        30.01S WCI   1
$$

NDZ022-023-025-028>030-036>039-047>053-190600-
SOUTHEAST NORTH DAKOTA

CITY           SKY/WX    TMP DP  RH WIND       PRES   REMARKS
FARGO          PTCLDY    15  10  80 W10       30.07R WCI   2
JAMESTOWN      CLEAR     12   9  87 S3        30.03S
$$





USA.gov is the U.S. government's official web portal to all federal, state and local government web resources and services.